TimeCET,TemperatureF,Dew PointF,Humidity,Sea Level PressureIn,VisibilityMPH,Wind Direction,Wind SpeedMPH,Gust SpeedMPH,PrecipitationIn,Events,Conditions,WindDirDegrees,DateUTC
12:00 AM,41.0,41.0,100,30.24,0.3,ESE,4.6,-,N/A,Fog,Fog,110,2012-11-24 23:00:00
12:30 AM,41.0,41.0,100,30.24,0.3,ESE,5.8,-,N/A,Fog,Fog,120,2012-11-24 23:30:00
1:00 AM,41.0,41.0,100,30.21,0.1,East,4.6,-,N/A,Fog,Fog,90,2012-11-25 00:00:00
1:30 AM,41.0,41.0,100,30.21,0.1,Variable,2.3,-,N/A,Fog,Fog,0,2012-11-25 00:30:00
2:00 AM,41.0,41.0,100,30.21,0.3,Variable,2.3,-,N/A,Fog,Fog,0,2012-11-25 01:00:00
2:30 AM,41.0,41.0,100,30.21,0.6,Variable,3.5,-,N/A,,Mostly Cloudy,0,2012-11-25 01:30:00
3:00 AM,41.0,41.0,100,30.21,0.3,Variable,3.5,-,N/A,Fog,Fog,0,2012-11-25 02:00:00
3:30 AM,41.0,41.0,100,30.18,0.2,East,4.6,-,N/A,Fog,Fog,100,2012-11-25 02:30:00
4:00 AM,39.2,39.2,100,30.21,0.2,Variable,2.3,-,N/A,Fog,Fog,0,2012-11-25 03:00:00
4:30 AM,39.2,39.2,100,30.21,0.1,Variable,2.3,-,N/A,Fog,Fog,0,2012-11-25 03:30:00
5:00 AM,41.0,41.0,100,30.21,0.1,Variable,2.3,-,N/A,Fog,Fog,0,2012-11-25 04:00:00
5:30 AM,39.2,39.2,100,30.18,0.1,East,4.6,-,N/A,Fog,Fog,100,2012-11-25 04:30:00
6:00 AM,39.2,39.2,100,30.18,0.2,Variable,1.2,-,N/A,Fog,Fog,0,2012-11-25 05:00:00
6:30 AM,39.2,39.2,100,30.18,0.2,Variable,3.5,-,N/A,Fog,Fog,0,2012-11-25 05:30:00
7:00 AM,39.2,39.2,100,30.18,0.2,Variable,3.5,-,N/A,Fog,Fog,0,2012-11-25 06:00:00
7:30 AM,39.2,39.2,100,30.21,0.2,Variable,2.3,-,N/A,Fog,Fog,0,2012-11-25 06:30:00
8:00 AM,41.0,41.0,100,30.21,0.3,ESE,8.1,-,N/A,Fog,Fog,110,2012-11-25 07:00:00
8:30 AM,41.0,41.0,100,30.21,0.3,ESE,5.8,-,N/A,Fog,Fog,110,2012-11-25 07:30:00
9:00 AM,41.0,41.0,100,30.18,0.5,SE,9.2,-,N/A,Fog,Fog,130,2012-11-25 08:00:00
9:30 AM,41.0,41.0,100,30.21,0.5,SE,5.8,-,N/A,Fog,Fog,140,2012-11-25 08:30:00
10:00 AM,42.8,42.8,100,30.21,0.5,East,5.8,-,N/A,Fog,Fog,100,2012-11-25 09:00:00
10:30 AM,42.8,42.8,100,30.21,0.6,ESE,6.9,-,N/A,Fog,Patches of Fog,110,2012-11-25 09:30:00
11:00 AM,42.8,42.8,100,30.21,0.7,East,6.9,-,N/A,,Overcast,100,2012-11-25 10:00:00
11:30 AM,42.8,42.8,100,30.21,0.9,ESE,6.9,-,N/A,,Overcast,120,2012-11-25 10:30:00
12:00 PM,42.8,42.8,100,30.18,1.2,ESE,5.8,-,N/A,,Mostly Cloudy,120,2012-11-25 11:00:00
12:30 PM,44.6,44.6,100,30.18,1.9,East,8.1,-,N/A,,Overcast,90,2012-11-25 11:30:00
1:00 PM,44.6,44.6,100,30.18,2.5,East,6.9,-,N/A,,Overcast,90,2012-11-25 12:00:00
1:30 PM,44.6,44.6,100,30.18,2.5,East,5.8,-,N/A,,Overcast,100,2012-11-25 12:30:00
2:00 PM,46.4,44.6,93,30.18,2.5,East,5.8,-,N/A,,Overcast,90,2012-11-25 13:00:00
2:30 PM,46.4,42.8,87,30.15,2.5,East,6.9,-,N/A,,Mostly Cloudy,90,2012-11-25 13:30:00
3:00 PM,46.4,42.8,87,30.15,3.1,East,8.1,-,N/A,,Mostly Cloudy,90,2012-11-25 14:00:00
3:30 PM,44.6,42.8,93,30.15,3.1,East,6.9,-,N/A,,Mostly Cloudy,100,2012-11-25 14:30:00
4:00 PM,44.6,42.8,93,30.15,2.5,East,6.9,-,N/A,,Mostly Cloudy,100,2012-11-25 15:00:00
4:30 PM,44.6,42.8,93,30.18,2.5,ESE,5.8,-,N/A,,Mostly Cloudy,110,2012-11-25 15:30:00
5:00 PM,42.8,41.0,93,30.15,2.5,East,5.8,-,N/A,,Mostly Cloudy,100,2012-11-25 16:00:00
5:30 PM,42.8,41.0,93,30.15,2.5,ESE,5.8,-,N/A,,Mostly Cloudy,110,2012-11-25 16:30:00
6:00 PM,42.8,42.8,100,30.18,2.5,East,4.6,-,N/A,,Mostly Cloudy,80,2012-11-25 17:00:00
6:30 PM,42.8,42.8,100,30.18,2.5,Variable,3.5,-,N/A,,Mostly Cloudy,0,2012-11-25 17:30:00
7:00 PM,42.8,42.8,100,30.18,-9999.0,ENE,6.9,-,N/A,,Mostly Cloudy,70,2012-11-25 18:00:00
7:30 PM,42.8,42.8,100,30.15,2.2,East,5.8,-,N/A,,Mostly Cloudy,80,2012-11-25 18:30:00
8:00 PM,42.8,42.8,100,30.18,-9999.0,Variable,3.5,-,N/A,,Mostly Cloudy,0,2012-11-25 19:00:00
8:30 PM,42.8,42.8,100,30.18,1.7,Variable,3.5,-,N/A,,Mostly Cloudy,0,2012-11-25 19:30:00
9:00 PM,42.8,42.8,100,30.18,1.4,East,4.6,-,N/A,,Mostly Cloudy,80,2012-11-25 20:00:00
9:30 PM,42.8,42.8,100,30.18,1.2,Variable,3.5,-,N/A,,Mostly Cloudy,0,2012-11-25 20:30:00
10:00 PM,42.8,42.8,100,30.18,1.1,Variable,3.5,-,N/A,,Mostly Cloudy,0,2012-11-25 21:00:00
10:30 PM,42.8,42.8,100,30.18,1.1,Variable,3.5,-,N/A,,Mostly Cloudy,0,2012-11-25 21:30:00
11:00 PM,42.8,42.8,100,30.18,1.1,ENE,4.6,-,N/A,,Mostly Cloudy,60,2012-11-25 22:00:00
11:30 PM,41.0,41.0,100,30.18,1.1,NE,4.6,-,N/A,,Mostly Cloudy,50,2012-11-25 22:30:00